Simultaneous Nadir Overpasses (SNOs) Predictions

Prediction of SNOs between FY3D and TERRA Satellite Orbit:

Table of predicted SNOs for the next 14.0 days since TLE Epoch: 7/6/2024
Index Date (FY3D) Time (FY3D) Lat,Lon (FY3D) SZA (FY3D ) Date (TERRA) Time (TERRA) Lat,Lon (TERRA) SZA (TERRA ) Distance(km) Time Diff (sec)
1 07/06/2024 09:21:54 -75.83,-140.33 126.87 07/06/2024 09:22:20 -75.83,-140.27 126.86 1.65 26
2 07/06/2024 10:12:39 75.79, 27.12 53.10 07/06/2024 10:11:41 75.78, 27.23 53.09 3.27 58
3 07/08/2024 20:34:47 -75.87, 51.38 126.55 07/08/2024 20:35:30 -75.85, 51.45 126.57 2.58 43
4 07/08/2024 21:25:31 75.78,-141.01 53.37 07/08/2024 21:24:51 75.79,-141.05 53.38 1.84 40
5 07/11/2024 07:47:39 -75.86,-116.78 126.23 07/11/2024 07:48:39 -75.89,-116.78 126.22 2.34 60
6 07/11/2024 08:38:24 75.82, 50.68 53.73 07/11/2024 08:38:00 75.83, 50.73 53.74 1.64 24
7 07/13/2024 19:00:35 -76.05, 74.41 125.69 07/13/2024 19:01:47 -75.94, 75.07 125.80 21.41 72
8 07/13/2024 19:51:16 75.83,-117.50 54.09 07/13/2024 19:51:09 75.84,-117.57 54.10 2.26 7
9 07/13/2024 20:41:47 -75.19, 51.85 126.54 07/13/2024 20:40:43 -75.24, 48.43 126.48 97.30 64
10 07/16/2024 07:04:09 75.88, 74.14 54.55 07/16/2024 07:04:17 75.87, 74.20 54.53 2.27 8
11 07/16/2024 07:54:52 -75.81,-118.29 125.53 07/16/2024 07:53:40 -75.82,-118.29 125.52 1.49 72
12 07/18/2024 18:17:00 75.90, -94.09 55.00 07/18/2024 18:17:24 75.87, -94.11 54.96 3.27 24



Historial Predications of SNOs between FY3D and TERRA
